DMSP 5D-3 F16 (USA 172) 1 28054U 03048A 26208.63474804 .00000009 00000+0 28502-4 0 9997 2 28054 98.9887 232.7290 0007718 40.1410 66.2240 14.14485376175206 METEOSAT-9 (MSG-2) 1 28912U 05049B 26207.73256787 .00000122 00000+0 00000+0 0 9995 2 28912 9.4476 53.7694 0002420 3.8918 196.2749 1.00278328 7393 DMSP 5D-3 F17 (USA 191) 1 29522U 06050A 26208.61648380 .00000083 00000+0 65432-4 0 9999 2 29522 98.7395 214.3618 0009114 304.9495 55.0822 14.14997753 18143 FENGYUN 3A 1 32958U 08026A 26208.29330781 .00000067 00000+0 52307-4 0 9997 2 32958 98.6888 148.3779 0009127 19.8987 340.2544 14.19578615941098 EWS-G3 (GOES 14) 1 35491U 09033A 26208.55616422 -.00000352 00000+0 00000+0 0 9995 2 35491 1.7897 82.5395 0002303 43.6911 136.4390 1.00092254 6993 DMSP 5D-3 F18 (USA 210) 1 35951U 09057A 26208.59033472 .00000252 00000+0 15326-3 0 9993 2 35951 98.9069 189.2778 0011870 131.9301 228.2886 14.14918128865300 EWS-G2 (GOES 15) 1 36411U 10008A 26208.66078834 .00000025 00000+0 00000+0 0 9999 2 36411 1.3848 82.3210 0005732 55.5873 108.5629 1.00273041 60046 COMS 1 1 36744U 10032A 26208.51576354 -.00000051 00000+0 00000+0 0 9999 2 36744 4.9047 74.8671 0011494 16.1498 312.8778 0.99164839 51484 FENGYUN 3B 1 37214U 10059A 26208.63312646 .00000326 00000+0 19176-3 0 9998 2 37214 98.9607 254.8140 0023145 73.0658 89.0377 14.14850698813143 SUOMI NPP 1 37849U 11061A 26208.65846993 .00000070 00000+0 54191-4 0 9998 2 37849 98.7958 149.2599 0001413 168.0880 192.0329 14.19524791764183 METEOSAT-10 (MSG-3) 1 38552U 12035B 26207.74891981 -.00000005 00000+0 00000+0 0 9992 2 38552 4.7618 60.8173 0001488 24.9688 128.3352 1.00274033 51251 METOP-B 1 38771U 12049A 26208.59392872 .00000114 00000+0 72145-4 0 9993 2 38771 98.6482 259.2820 0001679 198.9592 161.1523 14.21449262719000 INSAT-3D 1 39216U 13038B 26208.55862453 -.00000337 00000+0 00000+0 0 9994 2 39216 2.0262 82.0285 0001221 50.6514 143.1652 1.00270696 47483 FENGYUN 3C 1 39260U 13052A 26208.61029214 .00000082 00000+0 63095-4 0 9990 2 39260 98.5020 180.6357 0013425 267.2773 92.6865 14.15763037664284 METEOR-M 2 1 40069U 14037A 26208.61971123 .00000187 00000+0 10490-3 0 9994 2 40069 98.5140 182.9321 0004603 283.9337 76.1328 14.21472447625064 HIMAWARI-8 1 40267U 14060A 26208.64461294 -.00000271 00000+0 00000+0 0 9993 2 40267 0.0213 313.7735 0001048 195.7051 168.5588 1.00273015 43161 FENGYUN 2G 1 40367U 14090A 26207.07336484 -.00000303 00000+0 00000+0 0 9991 2 40367 5.7346 72.3384 0003750 172.4433 185.0012 1.00276800 42381 METEOSAT-11 (MSG-4) 1 40732U 15034A 26207.75073983 .00000065 00000+0 00000+0 0 9997 2 40732 3.2972 70.8501 0001907 355.9533 157.2251 1.00275471 7616 ELEKTRO-L 2 1 41105U 15074A 26207.98030988 -.00000117 00000+0 00000+0 0 9998 2 41105 6.7909 70.0289 0000549 224.0212 349.0575 1.00272865 38905 SENTINEL-3A 1 41335U 16011A 26208.61134794 .00000107 00000+0 62356-4 0 9991 2 41335 98.6229 275.4097 0001230 86.9802 273.1519 14.26737208543827 INSAT-3DR 1 41752U 16054A 26208.47638352 -.00000073 00000+0 00000+0 0 9990 2 41752 0.0987 88.7747 0010274 179.6626 282.1946 1.00271926 36220 HIMAWARI-9 1 41836U 16064A 26208.48949587 .00000000 00000+0 00000+0 0 9999 2 41836 0.0274 80.7865 0002525 100.9117 80.4393 1.00266772 35617 GOES 16 1 41866U 16071A 26208.51229685 -.00000087 00000+0 00000+0 0 9990 2 41866 0.4330 85.3802 0000870 75.6288 223.9049 1.00271956 35507 FENGYUN 4A 1 41882U 16077A 26208.71485435 -.00000354 00000+0 00000+0 0 9990 2 41882 2.4208 79.8146 0007116 163.8053 82.7857 1.00282762 35336 CYGFM05 1 41884U 16078A 26208.55961746 .00026992 00000+0 34244-3 0 9995 2 41884 34.9578 352.9014 0005641 172.4881 187.5929 15.58401166535050 CYGFM04 1 41885U 16078B 26208.58939753 .00034187 00000+0 35155-3 0 9999 2 41885 34.9331 318.2537 0004911 217.7765 142.2617 15.63799183535323 CYGFM02 1 41886U 16078C 26208.63490334 .00040079 00000+0 35879-3 0 9993 2 41886 34.9412 311.2186 0005519 219.5949 140.4376 15.67225189535513 CYGFM01 1 41887U 16078D 26208.59398024 .00028167 00000+0 34736-3 0 9997 2 41887 34.9408 353.3905 0005349 165.9918 194.0956 15.59143699535016 CYGFM08 1 41888U 16078E 26208.54429814 .00031162 00000+0 34231-3 0 9994 2 41888 34.9440 332.1762 0006591 200.3258 159.7207 15.62120709535287 CYGFM07 1 41890U 16078G 26208.62856874 .00031622 00000+0 34595-3 0 9990 2 41890 34.9456 319.9187 0005358 217.5360 142.4993 15.62232890535326 CYGFM03 1 41891U 16078H 26208.59989377 .00031728 00000+0 34736-3 0 9996 2 41891 34.9411 322.0369 0004923 202.0918 157.9596 15.62216448535297 FENGYUN 3D 1 43010U 17072A 26208.59977973 -.00000211 00000+0 -78072-4 0 9992 2 43010 99.0153 183.7580 0000841 345.4846 14.6305 14.19745954450722 NOAA 20 (JPSS-1) 1 43013U 17073A 26208.60139245 .00000048 00000+0 43683-4 0 9996 2 43013 98.7774 147.7064 0001767 110.5212 249.6154 14.19518430450205 GOES 17 1 43226U 18022A 26208.51524353 -.00000179 00000+0 00000+0 0 9992 2 43226 1.0365 85.0791 0000767 58.2688 257.8380 1.00272430 30826 SENTINEL-3B 1 43437U 18039A 26208.37410990 .00000109 00000+0 63006-4 0 9991 2 43437 98.6228 275.3251 0001389 116.8069 243.3253 14.26739257429851 FENGYUN 2H 1 43491U 18050A 26208.61996478 -.00000123 00000+0 00000+0 0 9998 2 43491 3.1319 78.5948 0002130 121.2079 47.6168 1.00267371 29841 METOP-C 1 43689U 18087A 26208.61118272 .00000118 00000+0 73813-4 0 9995 2 43689 98.6622 267.4706 0001984 78.1239 282.0161 14.21505680400577 GEO-KOMPSAT-2A 1 43823U 18100A 26208.55836453 -.00000340 00000+0 00000+0 0 9993 2 43823 0.0129 103.1193 0002411 2.1840 169.2009 1.00271208 28036 METEOR-M2 2 1 44387U 19038A 26208.56582641 .00000064 00000+0 47406-4 0 9996 2 44387 98.9171 196.4521 0000074 244.1446 115.9724 14.24375697367044 ARKTIKA-M 1 1 47719U 21016A 26206.87236863 -.00000386 00000+0 00000+0 0 9993 2 47719 63.2598 51.9767 7301001 270.1217 14.4714 2.00607275 39563 FENGYUN 3E 1 49008U 21062A 26208.57920156 -.00000031 00000+0 63466-5 0 9999 2 49008 98.7509 211.5388 0001625 16.6897 343.4332 14.19906782262313 GOES 18 1 51850U 22021A 26208.50588348 .00000000 00000+0 00000+0 0 9993 2 51850 0.0182 86.4040 0000467 68.9285 194.9708 1.00270404 6999 NOAA 21 (JPSS-2) 1 54234U 22150A 26208.56300517 .00000052 00000+0 45430-4 0 9999 2 54234 98.7060 146.6742 0002936 82.7888 277.3622 14.19542857192277 METEOSAT-12 (MTG-I1) 1 54743U 22170C 26208.23447385 -.00000004 00000+0 00000+0 0 9992 2 54743 0.7372 21.6155 0004196 82.3071 284.9795 1.00270888 13377 TIANMU-1 03 1 55973U 23039A 26208.58492486 .00015404 00000+0 29272-3 0 9998 2 55973 97.5245 24.1728 0001576 332.0042 28.1124 15.48360443187080 TIANMU-1 04 1 55974U 23039B 26208.62291045 .00015537 00000+0 28877-3 0 9999 2 55974 97.5179 23.3704 0001909 318.1763 41.9341 15.48996764187105 TIANMU-1 05 1 55975U 23039C 26208.50305132 .00016525 00000+0 31471-3 0 9992 2 55975 97.5223 23.6879 0001975 11.0738 349.0556 15.48280073187059 TIANMU-1 06 1 55976U 23039D 26208.62893749 .00015295 00000+0 28538-3 0 9995 2 55976 97.5229 24.4962 0001920 358.5124 1.6120 15.48888721187104 FENGYUN 3G 1 56232U 23055A 26208.62983404 .00025681 00000+0 39049-3 0 9996 2 56232 49.9920 137.3699 0006692 116.5738 243.5916 15.54304213186299 METEOR-M2 3 1 57166U 23091A 26208.63976362 .00000005 00000+0 21043-4 0 9998 2 57166 98.6060 262.7850 0004914 62.2059 297.9618 14.24049741160272 TIANMU-1 07 1 57399U 23101A 26208.58306128 .00006304 00000+0 21800-3 0 9997 2 57399 97.2575 258.3292 0002704 37.0561 323.0867 15.30240920167825 TIANMU-1 08 1 57400U 23101B 26208.61499442 .00006590 00000+0 22775-3 0 9995 2 57400 97.2563 258.1252 0003279 8.9882 351.1417 15.30244066167828 TIANMU-1 09 1 57401U 23101C 26208.59741015 .00006689 00000+0 23079-3 0 9996 2 57401 97.2521 257.5034 0003262 34.3605 325.7846 15.30289680167826 TIANMU-1 10 1 57402U 23101D 26208.56576928 .00006557 00000+0 22646-3 0 9996 2 57402 97.2601 258.5643 0004391 17.4567 342.6824 15.30262540167815 FENGYUN 3F 1 57490U 23111A 26208.63259922 .00000050 00000+0 44126-4 0 9994 2 57490 98.6818 277.8835 0001010 75.9899 284.1390 14.19945148154605 ARKTIKA-M 2 1 58584U 23198A 26208.13847943 .00000114 00000+0 00000+0 0 9994 2 58584 63.2158 149.8885 6914307 267.3111 18.7279 2.00606085 19125 TIANMU-1 11 1 58645U 23205A 26208.61159391 .00005695 00000+0 21510-3 0 9999 2 58645 97.3444 229.5427 0007717 208.9878 151.0934 15.27371931143691 TIANMU-1 12 1 58646U 23205B 26208.58631390 .00005758 00000+0 21967-3 0 9996 2 58646 97.3431 229.2577 0007077 191.2162 168.8921 15.27033247143675 TIANMU-1 13 1 58647U 23205C 26208.61885128 .00005742 00000+0 21797-3 0 9995 2 58647 97.3460 229.5763 0007265 167.3098 192.8325 15.27200342143676 TIANMU-1 14 1 58648U 23205D 26208.60289164 .00005831 00000+0 22101-3 0 9992 2 58648 97.3396 228.7108 0007863 173.7234 186.4105 15.27243570143671 TIANMU-1 19 1 58660U 23208A 26208.59067247 .00008826 00000+0 28673-3 0 9990 2 58660 97.4532 325.1192 0005657 157.1678 202.9816 15.32146525143514 TIANMU-1 20 1 58661U 23208B 26208.59714095 .00009017 00000+0 28211-3 0 9992 2 58661 97.4475 325.8031 0007455 168.5608 191.5805 15.33336711143618 TIANMU-1 21 1 58662U 23208C 26208.58843071 .00010664 00000+0 30860-3 0 9992 2 58662 97.4535 328.6536 0007743 161.2501 198.9029 15.35757248143768 TIANMU-1 22 1 58663U 23208D 26208.58668679 .00008019 00000+0 26544-3 0 9997 2 58663 97.4529 325.0158 0003872 172.4651 187.6649 15.31582770143510 TIANMU-1 15 1 58700U 24004A 26208.59826932 .00006203 00000+0 23656-3 0 9997 2 58700 97.4668 34.7913 0007154 180.9176 179.2051 15.27027147141948 TIANMU-1 16 1 58701U 24004B 26208.58689579 .00005671 00000+0 21592-3 0 9996 2 58701 97.4616 33.9900 0005405 193.5902 166.5192 15.27129370141949 TIANMU-1 17 1 58702U 24004C 26208.63792248 .00005570 00000+0 21215-3 0 9991 2 58702 97.4643 34.5406 0004805 197.7574 162.3498 15.27127095141947 TIANMU-1 18 1 58703U 24004D 26208.61471359 .00005667 00000+0 21638-3 0 9993 2 58703 97.4661 34.7813 0004894 176.1822 183.9455 15.27039394141943 INSAT-3DS 1 58990U 24033A 26208.42961491 -.00000152 00000+0 00000+0 0 9994 2 58990 0.0622 259.4124 0001325 224.9578 57.4672 1.00272998 47479 METEOR-M2 4 1 59051U 24039A 26208.63003115 .00000017 00000+0 27244-4 0 9995 2 59051 98.7042 167.4251 0008090 57.6997 302.4963 14.22433263125014 GOES 19 1 60133U 24119A 26208.51810355 .00000000 00000+0 00000+0 0 9994 2 60133 0.0211 85.6536 0000368 97.3204 233.5629 1.00269510 7364 MTG-S1 1 64723U 25143A 26208.23447385 .00000000 00000+0 00000+0 0 9999 2 64723 0.5792 347.7342 0003223 252.9077 148.4305 1.00276751 3826 METOP-SGA1 1 65159U 25172A 26208.15261953 .00000042 00000+0 39167-4 0 9998 2 65159 98.6620 267.0672 0001429 88.5675 271.5666 14.21504031 49461 FENGYUN 3H 1 65815U 25219A 26207.85438283 .00000045 00000+0 41685-4 0 9998 2 65815 98.6771 147.8537 0000870 64.4408 295.6859 14.19926408 43017